Norwood, MA

2:16 AM EDT on September 26, 2017 (GMT -0400)
Norwood Memorial

Weather History for KOWD - October, 2013

Change the Weather History Date:

Wednesday, October 2, 2013

  Actual Average Record
Temperature  
Mean Temperature 62 °F -  
Max Temperature 81 °F 65 °F 84 °F (2002)
Min Temperature 44 °F 40 °F 33 °F (2007)
Degree Days  
Heating Degree Days 3    
Growing Degree Days 12 (Base 50)    
Moisture  
Dew Point 49 °F    
Average Humidity 83    
Maximum Humidity 100    
Minimum Humidity 45    
Precipitation  
Precipitation 0.00 in - - ()
Sea Level Pressure  
Sea Level Pressure 29.89 in    
Wind  
Wind Speed 2 mph (West)    
Max Wind Speed 15 mph    
Max Gust Speed 24 mph    
Visibility 5 miles    
Events Fog    
Averages and records for this station are not official NWS values.
T = Trace of Precipitation, MM = Missing Value Source: NWS Daily Summary

Daily Weather History Graph

Daily Weather History Graph

Search for Another Location

Airport or City:

Trip Planner

Search our weather history database for the weather conditions in past years. The results will help you decide how hot, cold, wet, or windy it might be!

Date:

Astronomy

Oct. 02, 2013 Rise Set
Actual Time 6:43 AM EDT 6:24 PM EDT
Civil Twilight 6:15 AM EDT 6:52 PM EDT
Nautical Twilight 5:42 AM EDT 7:24 PM EDT
Astronomical Twilight 5:09 AM EDT 7:57 PM EDT
Moon 4:10 AM EDT (10/2) 5:00 PM EDT (10/2)
Length of Visible Light 12h 36m
Length of Day
11h 41m
Waning Crescent, 6% of the Moon is Illuminated
Oct 2
Waning Crescent
Oct 4
New
Oct 11
First Quarter
Oct 18
Full
Oct 26
Last Quarter

Hourly Weather History & Observations

Time (EDT) Temp. Heat Index Dew Point Humidity Pressure Visibility Wind Dir Wind Speed Gust Speed Precip Events Conditions
12:11 AM 50.0 °F - 48.2 °F 94% 29.88 in 0.5 mi Calm Calm - N/A Fog Fog
12:25 AM 51.8 °F - 48.2 °F 88% 29.89 in 2.5 mi Calm Calm - N/A   Clear
12:32 AM 50.0 °F - 46.4 °F 87% 29.89 in 5.0 mi Calm Calm - N/A   Clear
12:37 AM 48.2 °F - 46.4 °F 93% 29.89 in 1.8 mi Calm Calm - N/A   Clear
12:53 AM 48.0 °F - 46.9 °F 96% 29.89 in 1.0 mi Calm Calm - N/A   Clear
1:01 AM 48.2 °F - 46.4 °F 93% 29.89 in 0.8 mi Calm Calm - N/A   Clear
1:24 AM 48.2 °F - 46.4 °F 93% 29.89 in 0.5 mi Calm Calm - N/A Fog Fog
1:44 AM 48.2 °F - 46.4 °F 93% 29.89 in 1.5 mi Calm Calm - N/A   Partly Cloudy
1:50 AM 48.2 °F - 46.4 °F 93% 29.89 in 0.8 mi Calm Calm - N/A   Mist
1:53 AM 48.9 °F - 46.9 °F 93% 29.89 in 0.5 mi Calm Calm - N/A Fog Fog
2:05 AM 48.2 °F - 46.4 °F 93% 29.89 in 1.5 mi Calm Calm - N/A   Clear
2:13 AM 48.2 °F - 46.4 °F 93% 29.89 in 3.0 mi Calm Calm - N/A   Clear
2:16 AM 48.2 °F - 46.4 °F 93% 29.89 in 1.5 mi Calm Calm - N/A   Clear
2:21 AM 48.2 °F - 46.4 °F 93% 29.89 in 0.5 mi Calm Calm - N/A Fog Fog
2:30 AM 48.2 °F - 46.4 °F 93% 29.89 in 1.2 mi Calm Calm - N/A   Partly Cloudy
2:33 AM 48.2 °F - 46.4 °F 93% 29.89 in 3.0 mi Calm Calm - N/A   Clear
2:38 AM 48.2 °F - 46.4 °F 93% 29.88 in 1.8 mi Calm Calm - N/A   Clear
2:46 AM 48.2 °F - 46.4 °F 93% 29.88 in 3.0 mi Calm Calm - N/A   Clear
2:53 AM 46.9 °F - 46.0 °F 97% 29.88 in 3.0 mi Calm Calm - N/A   Clear
3:53 AM 48.0 °F - 45.0 °F 89% 29.88 in 10.0 mi Calm Calm - N/A   Clear
4:28 AM 46.4 °F - 44.6 °F 93% 29.89 in 1.5 mi Calm Calm - N/A   Clear
4:38 AM 46.4 °F - 44.6 °F 93% 29.89 in 3.0 mi Calm Calm - N/A   Clear
4:40 AM 46.4 °F - 44.6 °F 93% 29.89 in 1.8 mi Calm Calm - N/A   Clear
4:53 AM 46.9 °F - 45.0 °F 93% 29.88 in 1.0 mi Calm Calm - N/A   Clear
5:05 AM 46.4 °F - 44.6 °F 93% 29.89 in 0.5 mi Calm Calm - N/A Fog Fog
5:28 AM 46.4 °F - 44.6 °F 93% 29.88 in 0.5 mi Calm Calm - N/A Fog Fog
5:41 AM 46.4 °F - 44.6 °F 93% 29.89 in 3.0 mi Calm Calm - N/A   Mostly Cloudy
5:53 AM 46.0 °F - 44.1 °F 93% 29.89 in 4.0 mi Calm Calm - N/A   Scattered Clouds
5:55 AM 46.4 °F - 44.6 °F 93% 29.89 in 1.8 mi Calm Calm - N/A   Scattered Clouds
6:01 AM 44.6 °F - 44.6 °F 100% 29.89 in 0.8 mi Calm Calm - N/A   Mist
6:25 AM 44.6 °F - 42.8 °F 93% 29.89 in 2.0 mi Calm Calm - N/A   Mostly Cloudy
6:28 AM 44.6 °F - 42.8 °F 93% 29.89 in 7.0 mi Calm Calm - N/A   Scattered Clouds
6:53 AM 45.0 °F - 42.1 °F 90% 29.89 in 9.0 mi Calm Calm - N/A   Clear
7:53 AM 54.0 °F - 52.0 °F 93% 29.90 in 7.0 mi Calm Calm - N/A   Clear
8:53 AM 64.9 °F - 55.9 °F 73% 29.91 in 10.0 mi WSW 4.6 mph - N/A   Clear
9:53 AM 70.0 °F - 57.0 °F 63% 29.90 in 10.0 mi WSW 10.4 mph - N/A   Clear
10:53 AM 73.9 °F - 57.0 °F 55% 29.88 in 10.0 mi SW 9.2 mph - N/A   Clear
11:53 AM 77.0 °F - 57.9 °F 52% 29.86 in 10.0 mi West 10.4 mph 18.4 mph N/A   Clear
12:53 PM 79.0 °F - 57.0 °F 47% 29.85 in 10.0 mi West 15.0 mph 23.0 mph N/A   Clear
1:53 PM 80.1 °F 80.4 °F 57.0 °F 45% 29.85 in 10.0 mi WNW 13.8 mph 21.9 mph N/A   Clear
2:53 PM 80.1 °F 80.6 °F 57.9 °F 47% 29.84 in 10.0 mi West 15.0 mph 24.2 mph N/A   Scattered Clouds
3:53 PM 80.1 °F 80.6 °F 57.9 °F 47% 29.83 in 10.0 mi West 15.0 mph - N/A   Clear
4:53 PM 79.0 °F - 57.0 °F 47% 29.84 in 10.0 mi West 15.0 mph 19.6 mph N/A   Clear
5:53 PM 75.9 °F - 57.0 °F 52% 29.85 in 10.0 mi West 8.1 mph 17.3 mph N/A   Clear
6:53 PM 72.0 °F - 55.9 °F 57% 29.88 in 10.0 mi West 5.8 mph - N/A   Clear
7:53 PM 66.9 °F - 55.9 °F 68% 29.89 in 10.0 mi West 3.5 mph - N/A   Clear
8:53 PM 66.9 °F - 57.0 °F 70% 29.91 in 10.0 mi WSW 5.8 mph - N/A   Clear
9:53 PM 64.9 °F - 57.0 °F 75% 29.92 in 10.0 mi WSW 4.6 mph - N/A   Clear
10:53 PM 55.9 °F - 53.1 °F 90% 29.94 in 9.0 mi Calm Calm - N/A   Clear
11:45 PM 55.4 °F - 53.6 °F 94% 29.95 in 1.8 mi Calm Calm - N/A   Clear
11:53 PM 54.0 °F - 52.0 °F 93% 29.95 in 1.0 mi Calm Calm - N/A   Clear